www.pogodaiklimat.ru

Погода и климат >> Архив погоды >> Тунис >> Эль Борма


ПОГОДА в Эль Борма

  • Прогноз погоды в Эль Борма
  • Монитор погоды в Эль Борма

АРХИВ ПОГОДЫ в Эль Борма

Время (UTC), дата Ветер
(напр.,м/с)
 
Видим.   Явления Облачность Т
(С)
Тd
(С)
f
(%)
Тe
(С)
Тes
(С)
Комфортность P
(гПа)
Po
(гПа)
Тmin
(С)
Tmax
(С)
R
(мм)
R24
(мм)
S
(см)
06 16.09 В 3 10 км ясно +20.9 +13.6 63 +24 +24 комфорт 1019.6 989.7 +20.7
09 16.09 ЮВ 5 10 км ясно +27.7 +10.4 34 +28 +34 жарко 1020.2 990.9
12 16.09 ЮЗ 2 10 км ясно +33.4 +8.8 22 +32 +49 жарко 1018.0 989.3
15 16.09 В 1 10 км ясно +34.5 +8.3 20 +33 +40 жарко 1016.1 987.5
18 16.09 СВ 2-2
{6}
н/о н/о +31.5 +7.9 23 +30 +30 жарко 1016.3 987.4 +34.9
06 17.09 В 1 10 км ясно +23.2 +9.2 41 +25 +25 комфорт 1017.7 988.0 +22.5
09 17.09 ЮВ 3 10 км ясно +31.5 +8.5 24 +30 +40 жарко 1017.7 988.8
03 18.09 В 2-3
{3}
н/о н/о +25.8 +11.2 40 +27 +27 жарко 1015.4 986.0
06 18.09 В 2 10 км ясно +25.4 +9.7 37 +26 +26 жарко 1016.3 986.9 +24.9
09 18.09 ЮВ 4 10 км ясно +33.2 +9.3 23 +32 +40 жарко 1016.8 988.1
12 18.09 В 1 10 км ясно +37.4 +11.4 21 +37 +55 опасность
солнечного
удара
1015.8 987.5
15 18.09 СЗ 2 10 км ясно +37.8 +11.0 20 +37 +42 очень
жарко
1014.1 985.9
06 19.09 ЮВ 2 10 км ясно +26.0 +11.0 39 +27 +27 жарко 1016.3 986.9 +24.9
09 19.09 Ю 5 10 км ясно +34.9 +11.9 25 +35 +41 очень
жарко
1016.9 988.4
12 19.09 Ю 3 10 км ясно +38.3 +11.4 20 +37 +50 очень
жарко
1015.7 987.5
15 19.09 Ю 1 10 км ясно +39.5 +10.8 18 +38 +45 очень
жарко
1014.0 985.9
06 20.09 ЮВ 2 10 км ясно +27.7 +10.0 33 +28 +28 жарко 1016.0 986.8 +25.6
09 20.09 Ю 6 10 км ясно +34.8 +10.6 23 +34 +38 очень
жарко
1017.2 988.6
12 20.09 Ю 5 10 км ясно +39.9 +10.2 17 +38 +47 очень
жарко
1015.5 987.4
15 20.09 ЮЗ 2 10 км 3/3 800 м
[Cu med, cong]
+40.1 +9.5 16 +38 +42 очень
жарко
1014.0 986.0
18 20.09 В 1-2
{8}
н/о н/о +36.2 +8.1 18 +34 +34 очень
жарко
1014.9 986.5 +40.9
03 21.09 В 3-4
{5}
н/о н/о +29.0 +10.2 31 +29 +29 жарко 1015.4 986.3
06 21.09 В 2 10 км ясно +27.1 +10.3 35 +28 +28 жарко 1016.7 987.4 +26.9
09 21.09 Ю 8 8000 м ясно +35.5 +8.3 19 +34 +35 очень
жарко
1017.3 988.8
12 21.09 Ю 6 8000 м 6/0
[Ac cast Ci sp]
+40.5 +7.8 14 +38 +42 очень
жарко
1015.3 987.3
15 21.09 Ю 3 8000 м 5/0
[Ci sp]
+40.8 +8.1 14 +39 +43 очень
жарко
1013.9 985.9
06 22.09 ЮВ 4 10 км 3/0
[Ci sp]
+27.7 +8.6 30 +28 +28 жарко 1016.2 987.0 +27.4
09 22.09 Ю 7 10 км ясно +36.5 +6.6 16 +34 +37 очень
жарко
1016.4 988.0
12 22.09 Ю 6 8000 м 6/0
[]
+40.8 +6.7 13 +38 +42 очень
жарко
1015.4 987.3

 

Местоположение метеостанции Эль Борма (Тунис): широта 31.68 долгота 9.17 высота над уровнем моря 259 м.

В архиве по умолчанию представлена погода в Эль Борма за последнюю неделю. Архивные данные за месяц целиком и за предыдущие месяцы, начиная с января 2011 года, Вы можете получить, выбрав интересующий диапазон дат из раскрывающегося списка и нажав кнопку "Ввод!".


*Определитесь, кто Вы:
робот инопланетянин человек

Внимание! Время в таблицах - всемирное. Для получения местного времени необходимо прибавить поправку, которая равна 1 ч.

Смотрите также архив погоды в соседних городах и на ближайших метеорологических станциях:

Погода в Ремаде (Тунис) (136 км)
Погода в Налуте (Ливия) (172 км)
Погода в Гадамесе (Ливия) (175 км)
Погода в Татуине (Тунис) (183 км)
Погода в Меденине (Тунис) (223 км)
Погода в Кебили (Тунис) (225 км)
Погода в Габесе (Тунис) (239 км)
Погода в Таузаре (Тунис) (266 км)
Погода в Хасси-Мессауде (Алжир) (286 км)
Погода в Аэропорту Джерба-Зарзис (Тунис) (286 км)

Пояснения к столбцам:

Ветер - указаны скорость ветра в м/с - средняя за 10 мин, порывы в срок и между сроками (в фигурных скобках) и направление, откуда дует ветер: С - северный, СВ - северо-восточный, В - восточный, ЮВ - юго-восточный, Ю - южный, ЮЗ - юго-западный, З - западный, СЗ - северо-западный.
Видимость - горизонтальная дальность видимости в метрах или километрах. При видимости от 1 до 10 км при отсутствии осадков обычно наблюдается дымка, при ухудшении видимости до 1 км и менее - туман. В сухую погоду видимость может ухудшаться дымом, пылью или мглою.
Явления - указаны атмосферные явления, наблюдавшиеся в срок или в последний час перед сроком; фигурными скобками обозначены явления, наблюдавшиеся между сроками (за 1-3 часа до срока); квадратными скобками обозначены град или гололедные отложения с указанием их диаметра в мм.
Облачность - указаны через наклонную черту общая и нижняя облачность в баллах и высота нижней границы облаков в метрах; квадратными скобками обозначены формы облаков: Ci - перистые, Cs - перисто-слоистые, Cc - перисто-кучевые, Ac - высококучевые, As - высокослоистые, Sc - слоисто-кучевые, Ns - слоисто-дождевые, Cu - кучевые, Cb - кучево-дождевые. Подробнее классификацию облаков см. в Атласе облаков (PDF).
T - Температура воздуха - температура, измеренная на высоте 2 м над землей.
Td - Температура точки росы - температура, при понижении до которой содержащийся в воздухе водяной пар достигнет насыщения.
f - Относительная влажность воздуха - влажноcть воздуха, измеренная на высоте 2 м над землей.
Te - Эффективная температура - температура, которую ощущает одетый по сезону человек в тени. Характеристика душности погоды. При расчете учитывается влияние влажности воздуха и скорости ветра на теплоощущения человека.
Tes - Эффективная температура на солнце - температура, которую ощущает человек, с поправкой на солнечный нагрев. Характеристика знойности погоды. Зависит от высоты солнца над горизонтом, облачности и скорости ветра. Ночью, в пасмурную погоду, а также при ветре 12 м/с и более поправка равна нулю.
P - Атмосферное давление - приведенное к уровню моря атмосферное давление.
Po - Атмосферное давление - измеренное на уровне метеостанции атмосферное давление.
Tmin - Минимальная температура - минимум температуры воздуха на высоте 2 м над землей.
Tmax - Максимальная температура - максимум температуры воздуха на высоте 2 м над землей.
R - Количество осадков - Количество выпавших осадков за период времени, мм. При наведении курсора мыши на число - период времени, за который выпало указанное количество осадков.
R24 - Количество осадков - Количество выпавших осадков за 24 часа, мм.
S - Снежный покров - Высота снежного покрова, см. При наведении курсора мыши на число - состояние снежного покрова и степень покрытия местности в баллах.